Location: Kellogg
(38.0159°N, 90.0546°W)
Time: 21:45:17
(UTC+00:00)

Transit 4A - Pass Details

Date: 15 September 2024
Orbit: 864 x 978 km, 66.8° (Epoch: 12 October)

Event Time Altitude Azimuth Distance (km) Brightness Sun altitude
Rises 08:07:04 0° 192° (SSW) 3,432 - -39.1°
Reaches altitude 10° 08:09:34 10° 188° (S) 2,504 - -38.7°
Maximum altitude 08:15:09 53° 113° (ESE) 1,065 - -38.0°
Exits shadow 08:17:26 34° 55° (NE) 1,418 9.2 -37.6°
Drops below altitude 10° 08:20:54 10° 37° (NE) 2,571 10.9 -37.1°
Sets 08:23:30 0° 33° (NNE) 3,531 11.8 -36.7°
